Wind_Speed
4 4 3 3 3 3 2 2 2 2 2 2 2 2 1 1 1 1 1 2 2 2 2 2 3 2 3 3 3 3 3 3 3 4 4 5 5 5 5 6 6 7 7
4 3 3 2 2 2 2 1 1 2 2 2 2 2 2 2 1 1 1 1 1 1 1 1 2 1 2 2 2 3 3 3 3 4 4 5 5 5 5 6 6 6 6
4 3 3 2 2 2 1 1 1 1 2 2 2 3 3 3 2 1 1 1 1 1 0 1 1 1 1 2 3 3 2 2 3 4 4 4 5 6 6 6 5 5 5
4 3 2 2 1 1 0 0 1 2 2 2 2 3 3 3 3 3 2 2 2 2 1 0 0 1 1 2 2 2 2 3 3 4 4 5 5 5 6 5 5 5 5
5 4 2 1 1 1 1 1 1 2 3 3 3 3 3 3 3 3 3 3 3 3 2 1 0 1 1 2 2 2 2 3 4 4 4 5 5 5 5 5 5 5 5
6 4 2 1 1 1 2 2 3 2 3 3 3 3 3 4 4 4 4 4 4 3 3 1 1 1 1 1 2 2 2 2 3 3 4 4 4 5 5 5 6 6 6
6 5 3 1 1 2 2 3 3 3 4 4 4 3 4 4 4 4 4 4 4 4 3 1 1 0 0 1 1 1 2 2 2 3 3 3 4 4 4 5 5 5 5
7 5 4 2 1 2 3 4 3 3 3 4 4 4 4 4 4 4 4 4 4 3 2 1 1 0 0 1 1 1 1 2 2 2 3 3 3 4 4 4 4 5 4
6 5 5 3 2 2 3 4 4 4 4 4 4 4 4 4 4 4 4 4 3 3 2 1 1 0 0 1 1 1 2 3 2 3 3 3 3 3 4 4 4 4 4
7 6 6 5 4 4 4 4 5 5 5 5 5 5 5 4 4 3 4 3 3 3 2 2 1 0 0 1 1 1 2 3 3 3 3 3 3 3 3 4 4 4 4
8 7 7 6 5 4 4 4 5 5 6 6 6 5 5 4 4 3 3 3 3 3 2 1 1 1 1 1 1 1 2 3 3 3 3 3 3 3 3 4 4 4 4
9 7 7 8 7 6 4 5 6 5 5 6 6 6 5 4 3 3 3 3 3 2 2 1 0 0 1 2 2 1 2 2 2 2 3 3 3 3 3 3 4 4 4
10 9 9 9 9 7 5 4 6 6 6 6 5 6 5 5 4 4 3 3 2 2 1 1 0 1 1 2 2 1 1 2 2 2 3 3 3 3 4 3 4 4 4
11 11 10 10 10 8 5 4 5 7 7 7 7 6 6 6 5 4 4 3 2 1 1 1 1 1 1 1 2 1 1 1 2 2 2 3 3 3 4 4 4 4 4
11 11 10 10 10 9 6 5 5 6 7 7 7 8 7 6 5 4 4 3 2 1 1 1 0 1 1 1 1 1 1 1 1 2 2 2 3 3 3 4 4 4 4
12 11 11 11 10 10 6 4 4 5 6 7 8 8 8 7 6 5 4 3 2 2 2 1 1 0 1 1 1 1 1 1 1 1 1 2 2 3 3 3 4 4 4
12 13 12 12 12 10 7 4 4 4 5 6 7 8 8 8 7 5 5 4 3 3 2 1 1 1 0 1 1 1 1 2 1 2 2 2 2 2 3 3 3 3 3
13 13 13 12 12 11 8 4 3 4 5 6 8 8 8 9 8 7 6 5 5 4 3 2 2 1 1 1 1 1 1 2 2 2 2 2 2 2 2 2 2 3 3
14 13 13 13 12 10 7 4 3 4 6 7 8 8 9 9 9 8 7 6 6 5 4 3 2 2 1 1 1 1 1 1 1 1 1 2 2 2 2 1 2 3 3
14 13 13 13 12 9 6 4 2 3 6 7 8 9 10 10 10 9 7 7 6 6 5 4 3 3 2 2 2 2 1 1 1 1 1 2 2 2 2 2 1 2 3
13 12 12 12 10 8 5 3 3 3 5 7 8 10 10 10 10 10 9 8 8 7 6 5 4 4 3 2 2 2 2 1 1 1 1 1 1 1 2 2 2 2 3
12 12 12 11 9 7 5 2 2 3 5 7 8 10 10 10 10 10 10 10 10 9 8 6 6 5 4 3 3 2 2 2 1 1 1 2 2 2 2 2 3 3 2
12 12 11 10 8 7 5 3 2 3 4 6 8 10 11 10 11 11 11 10 11 10 9 8 7 6 5 5 4 4 3 3 2 3 2 3 3 3 4 4 3 3 3
12 11 10 9 7 6 6 4 3 4 4 5 8 9 10 11 12 12 11 11 11 11 10 9 9 8 7 6 6 6 5 5 4 4 4 4 5 5 5 5 4 4 4
11 10 9 8 7 7 6 5 4 4 4 5 7 9 10 10 12 13 13 12 12 12 11 11 10 9 9 8 8 7 7 7 6 6 6 6 6 6 7 7 6 6 5
10 10 9 8 7 7 6 6 5 4 4 5 7 9 10 11 12 13 13 13 13 13 13 12 11 11 10 10 9 9 9 8 8 8 8 8 8 8 8 8 8 8 7
Wind_Direction
88 99 108 115 112 114 102 70 47 30 9 355 349 352 357 7 29 61 80 94 102 103 101 102 100 100 108 109 106 101 97 95 97 102 93 89 91 96 101 105 109 106 111
86 94 109 120 119 118 108 75 43 14 355 343 336 331 334 337 339 355 32 50 71 85 87 88 88 89 104 109 102 97 96 99 105 111 104 96 98 102 105 108 107 107 110
76 89 106 122 127 120 100 41 346 339 337 330 325 322 319 322 318 316 325 330 328 313 308 67 71 78 97 114 111 103 100 107 118 116 108 104 108 107 105 107 105 109 112
63 80 108 125 129 136 142 308 285 301 312 311 312 314 311 312 311 305 304 309 312 313 307 296 63 128 121 116 116 112 111 119 131 124 114 109 115 113 110 109 109 114 116
57 71 94 122 149 213 250 261 262 285 288 290 295 301 307 310 311 308 305 306 309 309 305 293 255 160 140 119 121 120 122 115 126 125 114 111 116 117 116 115 112 117 121
49 53 59 101 186 220 236 246 258 267 270 278 284 290 299 302 305 307 305 307 307 306 303 292 275 183 143 133 135 142 146 130 119 126 118 117 120 123 120 117 116 117 122
43 38 28 14 241 229 228 235 251 256 270 270 275 286 295 300 306 309 308 309 306 303 300 299 309 237 169 164 153 151 165 160 145 146 131 129 131 129 124 123 125 126 125
37 32 26 21 306 256 243 242 247 252 262 269 271 282 293 298 304 311 315 317 314 307 306 315 320 317 168 180 163 147 159 167 151 153 150 145 143 139 135 129 129 136 135
29 20 12 360 304 276 264 253 243 244 253 260 266 275 287 294 300 311 317 318 318 308 304 308 311 314 191 184 176 170 173 180 153 145 147 152 155 159 151 146 147 149 144
26 13 2 358 331 283 262 251 243 244 247 248 254 264 269 278 290 305 316 318 318 311 308 307 311 315 149 152 162 176 181 181 165 152 155 165 168 167 163 161 158 159 158
18 9 2 358 349 323 267 247 241 241 243 246 246 250 257 266 281 289 307 309 306 304 311 327 0 83 114 135 160 177 169 163 165 166 175 183 185 182 176 173 173 174 176
14 6 9 3 353 334 305 255 238 233 236 244 242 237 245 255 266 274 285 297 298 300 306 317 28 91 117 134 160 155 151 155 152 164 174 184 193 194 189 184 186 187 192
15 9 1 1 358 345 315 270 243 232 232 236 238 236 236 240 252 264 265 277 287 298 292 265 129 111 126 136 135 125 135 149 153 166 176 185 194 199 196 198 202 205 203
11 6 1 -0 355 349 323 285 251 237 234 238 236 234 235 236 242 249 256 269 257 261 255 212 145 115 108 110 128 133 116 133 149 159 167 180 191 202 208 209 209 212 209
8 3 355 353 357 355 336 290 258 240 234 234 229 228 227 223 227 231 239 249 230 220 216 215 127 105 85 72 104 128 129 119 155 166 171 183 187 195 203 208 213 215 214
3 360 355 350 352 351 345 309 262 240 231 230 220 217 216 216 215 210 216 220 216 199 191 211 155 95 93 85 107 118 114 116 145 160 173 183 182 185 190 203 212 216 214
358 356 353 351 350 350 343 321 273 249 234 223 213 211 207 207 204 202 201 201 198 189 177 185 195 183 132 125 130 136 119 118 118 137 151 161 167 178 185 193 204 206 208
353 350 350 349 349 348 348 338 299 251 216 211 204 205 203 201 202 203 199 196 189 186 183 184 190 189 171 157 147 134 113 114 118 119 139 159 159 167 182 199 204 199 201
347 348 346 348 346 342 338 325 284 230 213 208 207 204 203 202 202 201 199 196 189 192 193 190 189 188 178 166 152 131 115 115 127 127 132 141 150 158 167 178 190 196 202
342 345 346 348 348 342 331 311 261 233 218 210 208 207 205 204 203 201 201 200 196 198 200 200 197 192 184 174 166 151 141 131 128 127 136 153 152 164 176 175 185 196 199
339 341 342 344 347 348 340 299 268 248 219 211 210 209 205 204 203 205 207 206 203 203 207 207 205 206 200 195 184 175 160 170 155 133 138 161 166 188 198 202 221 217 213
338 339 338 340 340 340 346 320 262 248 234 225 214 208 206 205 203 201 205 208 208 208 211 212 212 213 215 211 205 201 196 213 240 256 247 238 235 243 226 227 240 232 226
338 339 337 336 337 339 336 325 275 264 238 223 212 209 208 211 209 205 207 210 210 211 213 215 216 218 221 219 217 224 223 226 242 246 257 254 256 248 236 234 243 238 229
337 335 335 333 334 336 332 318 295 276 253 222 212 208 211 217 216 211 211 215 216 217 218 220 221 223 226 227 227 230 236 241 243 247 255 259 256 255 246 243 245 245 243
335 332 326 323 324 326 324 316 297 275 254 231 214 207 212 220 219 216 216 219 221 221 223 226 226 229 231 233 237 239 241 246 249 250 253 255 255 256 249 246 246 250 259
331 332 326 321 324 323 315 306 296 278 253 244 230 221 218 217 219 221 221 222 223 223 226 229 232 234 236 239 244 248 249 252 252 253 254 255 254 254 251 251 251 252 258
Height
5895 5895 5896 5896 5896 5897 5897 5898 5898 5898 5899 5899 5899 5899 5899 5899 5899 5898 5898 5898 5897 5897 5897 5897 5896 5896 5896 5896 5896 5895 5895 5895 5895 5894 5894 5894 5894 5894 5894 5894 5894 5894 5894
5896 5896 5896 5897 5897 5897 5898 5898 5899 5899 5899 5900 5900 5900 5900 5899 5899 5899 5899 5898 5898 5898 5897 5897 5897 5897 5897 5897 5896 5896 5896 5896 5895 5895 5895 5895 5895 5895 5895 5895 5895 5895 5895
5897 5897 5897 5897 5898 5898 5899 5899 5899 5900 5900 5900 5900 5900 5900 5900 5900 5900 5899 5899 5899 5898 5898 5898 5898 5897 5897 5897 5897 5896 5896 5896 5896 5896 5896 5896 5896 5896 5896 5896 5896 5896 5897
5897 5897 5898 5898 5899 5899 5899 5900 5900 5901 5901 5901 5901 5901 5901 5901 5900 5900 5900 5900 5899 5899 5898 5898 5898 5898 5898 5897 5897 5897 5896 5896 5896 5896 5897 5897 5897 5897 5897 5897 5897 5897 5898
5898 5898 5898 5899 5899 5899 5900 5900 5901 5901 5901 5901 5902 5902 5902 5901 5901 5901 5901 5900 5900 5899 5899 5898 5898 5898 5898 5897 5897 5897 5897 5897 5897 5897 5897 5898 5898 5898 5898 5898 5898 5898 5898
5899 5899 5899 5899 5899 5900 5900 5900 5901 5901 5902 5902 5902 5902 5902 5902 5902 5902 5901 5900 5900 5899 5899 5898 5898 5898 5898 5898 5898 5897 5897 5897 5897 5898 5898 5898 5898 5899 5899 5899 5899 5899 5899
5899 5899 5899 5899 5899 5900 5900 5900 5901 5901 5901 5902 5902 5902 5903 5902 5902 5902 5901 5901 5900 5900 5899 5899 5899 5899 5898 5898 5898 5898 5897 5898 5898 5898 5899 5899 5899 5899 5899 5900 5900 5900 5900
5900 5900 5900 5899 5899 5900 5900 5900 5900 5901 5901 5902 5902 5902 5903 5903 5902 5902 5901 5901 5900 5900 5900 5899 5899 5899 5899 5899 5898 5898 5898 5898 5898 5898 5899 5899 5899 5900 5900 5900 5900 5900 5901
5901 5900 5900 5899 5899 5899 5899 5899 5899 5900 5900 5901 5902 5902 5902 5902 5902 5902 5902 5901 5901 5900 5900 5900 5900 5900 5899 5899 5898 5898 5898 5898 5898 5899 5899 5899 5900 5900 5900 5900 5901 5901 5901
5901 5900 5899 5898 5898 5898 5898 5898 5899 5899 5899 5900 5901 5901 5902 5902 5902 5902 5902 5901 5901 5900 5900 5900 5900 5900 5900 5899 5899 5899 5898 5899 5899 5899 5899 5900 5900 5900 5900 5900 5901 5901 5901
5901 5900 5899 5898 5897 5896 5896 5897 5897 5898 5898 5899 5900 5901 5901 5902 5902 5902 5902 5901 5901 5901 5900 5900 5900 5900 5900 5899 5899 5899 5899 5899 5899 5899 5899 5900 5900 5900 5900 5901 5901 5901 5901
5901 5899 5898 5897 5896 5895 5895 5895 5896 5896 5897 5898 5899 5899 5900 5901 5901 5902 5902 5901 5901 5901 5900 5900 5900 5900 5900 5900 5899 5899 5899 5899 5899 5899 5899 5899 5900 5900 5900 5900 5901 5901 5901
5901 5899 5898 5897 5895 5894 5894 5894 5894 5895 5896 5897 5897 5898 5899 5900 5901 5901 5901 5901 5901 5901 5901 5900 5900 5900 5900 5900 5899 5899 5899 5899 5899 5899 5899 5899 5899 5900 5900 5900 5900 5901 5901
5900 5899 5897 5896 5894 5893 5892 5892 5893 5894 5895 5895 5896 5897 5898 5899 5900 5901 5901 5901 5901 5901 5901 5901 5901 5901 5900 5900 5900 5899 5899 5899 5899 5899 5899 5899 5899 5899 5900 5900 5900 5900 5900
5901 5899 5897 5895 5894 5892 5891 5890 5891 5892 5893 5894 5894 5896 5897 5898 5899 5900 5901 5901 5901 5901 5901 5901 5901 5901 5900 5900 5899 5899 5899 5899 5899 5899 5898 5898 5899 5899 5899 5900 5900 5900 5900
5900 5898 5897 5894 5893 5891 5890 5889 5889 5890 5891 5892 5893 5894 5896 5897 5898 5899 5900 5901 5901 5901 5901 5901 5901 5901 5900 5900 5900 5899 5899 5899 5899 5899 5898 5898 5898 5898 5899 5899 5899 5899 5899
5899 5897 5895 5893 5891 5890 5888 5888 5888 5889 5890 5891 5892 5893 5895 5896 5897 5899 5900 5900 5901 5901 5901 5901 5901 5901 5901 5900 5900 5900 5899 5899 5899 5899 5899 5898 5898 5898 5898 5898 5898 5898 5898
5897 5895 5894 5892 5890 5888 5887 5886 5886 5887 5888 5889 5891 5892 5894 5895 5896 5897 5899 5900 5900 5901 5901 5901 5901 5901 5901 5901 5901 5900 5900 5899 5899 5899 5899 5899 5898 5898 5898 5898 5898 5898 5898
5896 5894 5892 5890 5888 5887 5886 5885 5885 5885 5886 5888 5889 5891 5892 5894 5895 5896 5898 5899 5900 5900 5901 5901 5901 5901 5901 5901 5901 5901 5900 5900 5900 5899 5899 5899 5899 5898 5898 5898 5898 5898 5898
5895 5893 5891 5889 5887 5886 5884 5884 5884 5884 5885 5886 5888 5890 5891 5893 5894 5895 5897 5898 5899 5900 5900 5901 5901 5901 5901 5901 5901 5901 5901 5901 5900 5900 5899 5899 5899 5898 5898 5898 5898 5898 5898
5894 5892 5890 5888 5887 5885 5884 5884 5884 5884 5884 5885 5886 5888 5889 5891 5892 5894 5896 5897 5898 5899 5900 5900 5901 5901 5901 5901 5901 5901 5901 5901 5900 5900 5900 5899 5899 5899 5898 5898 5898 5898 5897
5893 5891 5889 5887 5886 5884 5883 5883 5883 5883 5883 5884 5885 5886 5888 5889 5891 5892 5894 5896 5897 5898 5899 5900 5900 5901 5901 5901 5901 5901 5901 5901 5901 5900 5900 5899 5899 5898 5898 5898 5898 5897 5897
5892 5889 5887 5886 5885 5883 5882 5881 5881 5881 5881 5882 5883 5884 5886 5887 5889 5891 5892 5894 5895 5896 5897 5898 5899 5900 5900 5900 5900 5901 5901 5901 5900 5900 5900 5899 5899 5898 5898 5898 5897 5897 5896
5890 5888 5887 5885 5884 5883 5882 5881 5880 5880 5880 5881 5881 5882 5884 5885 5887 5889 5890 5892 5893 5895 5896 5897 5898 5898 5899 5899 5900 5900 5900 5900 5900 5900 5899 5899 5898 5898 5897 5897 5897 5896 5896
5889 5887 5886 5884 5883 5882 5881 5880 5879 5879 5879 5879 5880 5880 5882 5883 5885 5887 5888 5890 5891 5893 5894 5895 5896 5897 5898 5898 5898 5899 5899 5899 5899 5898 5898 5898 5897 5897 5897 5896 5896 5896 5895
5888 5886 5885 5883 5882 5881 5879 5879 5878 5878 5877 5878 5878 5879 5880 5881 5883 5884 5886 5888 5889 5890 5892 5893 5894 5895 5896 5896 5896 5897 5897 5897 5897 5897 5896 5896 5895 5895 5895 5895 5894 5894 5893